Time,TemperatureF,DewpointF,PressureIn,WindDirection,WindDirectionDegrees,WindSpeedMPH,WindSpeedGustMPH,Humidity,HourlyPrecipIn,Conditions,Clouds,dailyrainin,SoftwareType,DateUTC
2013-02-15 00:02:00,45.0,41.0,30.09,South,179,1.0,2.0,86,0.00,,,0.01,,2013-02-15 06:02:00,
2013-02-15 00:11:00,45.0,41.0,30.09,South,179,1.0,2.0,86,0.00,,,0.01,,2013-02-15 06:11:00,
2013-02-15 00:22:00,46.0,41.0,30.09,SSW,213,3.0,5.0,81,0.00,,,0.01,,2013-02-15 06:22:00,
2013-02-15 00:32:00,46.0,40.0,30.08,SSW,209,3.0,5.0,79,0.00,,,0.01,,2013-02-15 06:32:00,
2013-02-15 00:42:00,46.0,40.0,30.08,SSW,209,3.0,5.0,79,0.00,,,0.01,,2013-02-15 06:42:00,
2013-02-15 00:51:00,46.0,40.0,30.08,SSW,212,2.0,4.0,79,0.00,,,0.01,,2013-02-15 06:51:00,
2013-02-15 01:01:00,46.0,40.0,30.08,SSW,209,3.0,4.0,78,0.00,,,0.01,,2013-02-15 07:01:00,
2013-02-15 01:11:00,46.0,40.0,30.08,SSW,209,3.0,4.0,78,0.00,,,0.01,,2013-02-15 07:11:00,
2013-02-15 01:21:00,46.0,40.0,30.08,SW,215,3.0,5.0,78,0.00,,,0.01,,2013-02-15 07:21:00,
2013-02-15 01:31:00,46.0,40.0,30.09,SW,221,1.0,5.0,78,0.00,,,0.01,,2013-02-15 07:31:00,
2013-02-15 01:42:00,46.0,40.0,30.09,SW,221,1.0,5.0,78,0.00,,,0.01,,2013-02-15 07:42:00,
2013-02-15 01:52:00,45.0,39.0,30.09,SW,221,1.0,2.0,80,0.00,,,0.01,,2013-02-15 07:52:00,
2013-02-15 02:01:00,45.0,39.0,30.10,SSW,213,3.0,4.0,80,0.00,,,0.01,,2013-02-15 08:01:00,
2013-02-15 02:11:00,45.0,39.0,30.10,SSW,213,3.0,4.0,80,0.00,,,0.01,,2013-02-15 08:11:00,
2013-02-15 02:21:00,45.0,39.0,30.10,SSW,213,3.0,4.0,80,0.00,,,0.01,,2013-02-15 08:21:00,
2013-02-15 02:32:00,45.0,39.0,30.10,SSW,209,1.0,2.0,80,0.00,,,0.01,,2013-02-15 08:32:00,
2013-02-15 02:42:00,45.0,39.0,30.10,SSW,209,1.0,2.0,80,0.00,,,0.01,,2013-02-15 08:42:00,
2013-02-15 02:52:00,44.0,39.0,30.10,SSW,209,2.0,3.0,81,0.00,,,0.01,,2013-02-15 08:52:00,
2013-02-15 03:01:00,44.0,39.0,30.10,SSW,195,1.0,4.0,81,0.00,,,0.01,,2013-02-15 09:01:00,
2013-02-15 03:12:00,44.0,39.0,30.10,SSW,195,1.0,4.0,81,0.00,,,0.01,,2013-02-15 09:12:00,
2013-02-15 03:21:00,44.0,38.0,30.10,SSW,197,1.0,3.0,80,0.00,,,0.01,,2013-02-15 09:21:00,
2013-02-15 03:32:00,45.0,39.0,30.11,SW,227,1.0,3.0,79,0.00,,,0.01,,2013-02-15 09:32:00,
2013-02-15 03:42:00,45.0,39.0,30.11,SW,227,1.0,3.0,79,0.00,,,0.01,,2013-02-15 09:42:00,
2013-02-15 03:52:00,44.0,38.0,30.11,SW,221,3.0,5.0,80,0.00,,,0.01,,2013-02-15 09:52:00,
2013-02-15 04:01:00,44.0,39.0,30.11,SW,229,0.0,4.0,81,0.00,,,0.01,,2013-02-15 10:01:00,
2013-02-15 04:11:00,44.0,39.0,30.11,SW,229,0.0,4.0,81,0.00,,,0.01,,2013-02-15 10:11:00,
2013-02-15 04:21:00,42.0,38.0,30.11,SW,229,0.0,0.0,86,0.00,,,0.01,,2013-02-15 10:21:00,
2013-02-15 04:31:00,41.0,38.0,30.11,SW,229,0.0,0.0,88,0.00,,,0.01,,2013-02-15 10:31:00,
2013-02-15 04:41:00,41.0,38.0,30.11,SW,229,0.0,0.0,88,0.00,,,0.01,,2013-02-15 10:41:00,
2013-02-15 04:52:00,42.0,38.0,30.11,SW,229,0.0,0.0,87,0.00,,,0.01,,2013-02-15 10:52:00,
2013-02-15 05:01:00,43.0,39.0,30.11,SW,229,0.0,2.0,85,0.00,,,0.01,,2013-02-15 11:01:00,
2013-02-15 05:11:00,43.0,39.0,30.11,SW,229,0.0,2.0,85,0.00,,,0.01,,2013-02-15 11:11:00,
2013-02-15 05:22:00,43.0,38.0,30.11,SW,230,0.0,3.0,84,0.00,,,0.01,,2013-02-15 11:22:00,
2013-02-15 05:32:00,43.0,38.0,30.12,WNW,282,1.0,3.0,83,0.00,,,0.01,,2013-02-15 11:32:00,
2013-02-15 05:42:00,43.0,38.0,30.12,WNW,282,1.0,3.0,83,0.00,,,0.01,,2013-02-15 11:42:00,
2013-02-15 05:52:00,43.0,39.0,30.14,NNW,330,9.0,12.0,85,0.00,,,0.01,,2013-02-15 11:52:00,
2013-02-15 06:01:00,43.0,38.0,30.14,NNW,331,5.0,8.0,83,0.00,,,0.01,,2013-02-15 12:01:00,
2013-02-15 06:11:00,43.0,38.0,30.14,NNW,331,5.0,8.0,83,0.00,,,0.01,,2013-02-15 12:11:00,
2013-02-15 06:21:00,42.0,38.0,30.14,WSW,252,0.0,3.0,85,0.00,,,0.01,,2013-02-15 12:21:00,
2013-02-15 06:32:00,42.0,38.0,30.13,SSW,213,0.0,2.0,86,0.00,,,0.01,,2013-02-15 12:32:00,
2013-02-15 06:42:00,42.0,38.0,30.13,SSW,213,0.0,2.0,86,0.00,,,0.01,,2013-02-15 12:42:00,
2013-02-15 06:52:00,42.0,38.0,30.14,NW,324,3.0,4.0,87,0.00,,,0.01,,2013-02-15 12:52:00,
2013-02-15 07:02:00,40.0,37.0,30.14,NW,321,1.0,3.0,88,0.00,,,0.01,,2013-02-15 13:02:00,
2013-02-15 07:11:00,40.0,37.0,30.14,NW,321,1.0,3.0,88,0.00,,,0.01,,2013-02-15 13:11:00,
2013-02-15 07:22:00,42.0,38.0,30.15,NW,318,6.0,7.0,87,0.00,,,0.01,,2013-02-15 13:22:00,
2013-02-15 07:32:00,44.0,39.0,30.15,NNW,337,7.0,10.0,83,0.00,,,0.00,,2013-02-15 13:32:00,
2013-02-15 07:41:00,44.0,39.0,30.15,NNW,337,7.0,10.0,83,0.00,,,0.00,,2013-02-15 13:41:00,
2013-02-15 07:52:00,44.0,39.0,30.16,North,355,8.0,11.0,83,0.00,,,0.00,,2013-02-15 13:52:00,
2013-02-15 08:01:00,44.0,39.0,30.16,North,5,9.0,12.0,82,0.00,,,0.00,,2013-02-15 14:01:00,
2013-02-15 08:11:00,44.0,39.0,30.16,North,5,9.0,12.0,82,0.00,,,0.00,,2013-02-15 14:11:00,
2013-02-15 08:21:00,45.0,40.0,30.17,NNE,12,9.0,12.0,82,0.00,,,0.00,,2013-02-15 14:21:00,
2013-02-15 08:32:00,46.0,40.0,30.18,NNE,15,10.0,13.0,80,0.00,,,0.00,,2013-02-15 14:32:00,
2013-02-15 08:41:00,46.0,40.0,30.18,NNE,15,10.0,13.0,80,0.00,,,0.00,,2013-02-15 14:41:00,
2013-02-15 08:52:00,46.0,40.0,30.19,North,5,9.0,14.0,79,0.00,,,0.00,,2013-02-15 14:52:00,
2013-02-15 09:01:00,48.0,41.0,30.20,NNE,13,9.0,13.0,77,0.00,,,0.00,,2013-02-15 15:01:00,
2013-02-15 09:11:00,48.0,41.0,30.20,NNE,13,9.0,13.0,77,0.00,,,0.00,,2013-02-15 15:11:00,
2013-02-15 09:21:00,49.0,40.0,30.20,NNE,24,9.0,15.0,70,0.00,,,0.00,,2013-02-15 15:21:00,
2013-02-15 09:32:00,50.0,40.0,30.20,NE,46,11.0,17.0,68,0.00,,,0.00,,2013-02-15 15:32:00,
2013-02-15 09:42:00,50.0,40.0,30.20,NE,46,11.0,17.0,68,0.00,,,0.00,,2013-02-15 15:42:00,
2013-02-15 09:52:00,51.0,40.0,30.19,NE,51,14.0,19.0,65,0.00,,,0.00,,2013-02-15 15:52:00,
2013-02-15 10:01:00,51.0,40.0,30.19,NE,40,13.0,18.0,67,0.00,,,0.00,,2013-02-15 16:01:00,
2013-02-15 10:11:00,51.0,40.0,30.19,NE,40,13.0,18.0,67,0.00,,,0.00,,2013-02-15 16:11:00,
2013-02-15 10:22:00,52.0,42.0,30.19,NE,36,9.0,17.0,68,0.00,,,0.00,,2013-02-15 16:22:00,
2013-02-15 10:32:00,52.0,40.0,30.20,NNE,28,10.0,15.0,64,0.00,,,0.00,,2013-02-15 16:32:00,
2013-02-15 10:42:00,52.0,40.0,30.20,NNE,28,10.0,15.0,64,0.00,,,0.00,,2013-02-15 16:42:00,
2013-02-15 10:52:00,53.0,41.0,30.20,NNE,33,12.0,17.0,63,0.00,,,0.00,,2013-02-15 16:52:00,
2013-02-15 11:01:00,54.0,42.0,30.20,NNE,15,10.0,14.0,63,0.00,,,0.00,,2013-02-15 17:01:00,
2013-02-15 11:11:00,54.0,42.0,30.20,NNE,21,8.0,12.0,63,0.00,,,0.00,,2013-02-15 17:11:00,
2013-02-15 11:21:00,54.0,42.0,30.20,NNE,21,8.0,12.0,63,0.00,,,0.00,,2013-02-15 17:21:00,
2013-02-15 11:32:00,55.0,42.0,30.19,NNE,33,9.0,12.0,62,0.00,,,0.00,,2013-02-15 17:32:00,
2013-02-15 11:42:00,55.0,42.0,30.19,NNE,33,9.0,12.0,62,0.00,,,0.00,,2013-02-15 17:42:00,
2013-02-15 11:52:00,55.0,40.0,30.19,NNE,30,9.0,14.0,56,0.00,,,0.00,,2013-02-15 17:52:00,
2013-02-15 12:01:00,56.0,40.0,30.19,NE,42,9.0,12.0,55,0.00,,,0.00,,2013-02-15 18:01:00,
2013-02-15 12:11:00,56.0,40.0,30.19,NE,42,9.0,12.0,55,0.00,,,0.00,,2013-02-15 18:11:00,
2013-02-15 12:21:00,56.0,41.0,30.19,NE,35,11.0,16.0,56,0.00,,,0.00,,2013-02-15 18:21:00,
2013-02-15 12:31:00,56.0,41.0,30.19,NNE,28,7.0,14.0,56,0.00,,,0.00,,2013-02-15 18:31:00,
2013-02-15 12:42:00,56.0,41.0,30.19,NNE,28,7.0,14.0,56,0.00,,,0.00,,2013-02-15 18:42:00,
2013-02-15 12:52:00,56.0,41.0,30.18,North,10,7.0,16.0,57,0.00,,,0.00,,2013-02-15 18:52:00,
2013-02-15 13:01:00,57.0,42.0,30.17,NNE,26,9.0,13.0,57,0.00,,,0.00,,2013-02-15 19:01:00,
2013-02-15 13:11:00,57.0,42.0,30.17,NNE,26,9.0,13.0,57,0.00,,,0.00,,2013-02-15 19:11:00,
2013-02-15 13:22:00,57.0,41.0,30.17,NNE,24,9.0,13.0,55,0.00,,,0.00,,2013-02-15 19:22:00,
2013-02-15 13:32:00,56.0,41.0,30.16,North,9,8.0,14.0,58,0.00,,,0.00,,2013-02-15 19:32:00,
2013-02-15 13:41:00,56.0,41.0,30.16,North,9,8.0,14.0,58,0.00,,,0.00,,2013-02-15 19:41:00,
2013-02-15 13:52:00,56.0,42.0,30.16,North,355,12.0,15.0,59,0.00,,,0.00,,2013-02-15 19:52:00,
2013-02-15 14:01:00,57.0,43.0,30.16,North,5,12.0,17.0,60,0.00,,,0.00,,2013-02-15 20:01:00,
2013-02-15 14:11:00,57.0,43.0,30.16,North,5,12.0,17.0,60,0.00,,,0.00,,2013-02-15 20:11:00,
2013-02-15 14:21:00,56.0,43.0,30.16,North,351,7.0,14.0,61,0.00,,,0.00,,2013-02-15 20:21:00,
2013-02-15 14:32:00,56.0,44.0,30.15,North,5,11.0,15.0,63,0.00,,,0.00,,2013-02-15 20:32:00,
2013-02-15 14:42:00,56.0,44.0,30.15,North,5,11.0,15.0,63,0.00,,,0.00,,2013-02-15 20:42:00,
2013-02-15 14:52:00,55.0,42.0,30.15,NNW,342,13.0,16.0,62,0.00,,,0.00,,2013-02-15 20:52:00,
2013-02-15 15:01:00,54.0,42.0,30.15,NNW,343,10.0,15.0,64,0.00,,,0.00,,2013-02-15 21:01:00,
2013-02-15 15:11:00,54.0,42.0,30.15,NNW,343,10.0,15.0,64,0.00,,,0.00,,2013-02-15 21:11:00,
2013-02-15 15:21:00,54.0,42.0,30.16,NNE,21,10.0,14.0,63,0.00,,,0.00,,2013-02-15 21:21:00,
2013-02-15 15:31:00,54.0,41.0,30.15,North,355,10.0,15.0,62,0.00,,,0.00,,2013-02-15 21:31:00,
2013-02-15 15:42:00,54.0,41.0,30.15,North,355,10.0,15.0,62,0.00,,,0.00,,2013-02-15 21:42:00,
2013-02-15 15:52:00,54.0,41.0,30.15,NNE,21,10.0,16.0,61,0.00,,,0.00,,2013-02-15 21:52:00,
2013-02-15 16:02:00,53.0,42.0,30.16,NNE,15,10.0,14.0,66,0.00,,,0.00,,2013-02-15 22:02:00,
2013-02-15 16:11:00,53.0,42.0,30.16,NNE,15,10.0,14.0,66,0.00,,,0.00,,2013-02-15 22:11:00,
2013-02-15 16:21:00,53.0,41.0,30.16,NNE,13,9.0,13.0,64,0.00,,,0.00,,2013-02-15 22:21:00,
2013-02-15 16:31:00,53.0,41.0,30.16,NNE,13,9.0,13.0,64,0.00,,,0.00,,2013-02-15 22:31:00,
2013-02-15 16:41:00,53.0,41.0,30.16,NNE,13,9.0,13.0,64,0.00,,,0.00,,2013-02-15 22:41:00,
2013-02-15 16:52:00,53.0,41.0,30.15,NNE,16,9.0,13.0,64,0.00,,,0.00,,2013-02-15 22:52:00,
2013-02-15 17:02:00,52.0,39.0,30.15,NNE,27,10.0,12.0,60,0.00,,,0.00,,2013-02-15 23:02:00,
2013-02-15 17:11:00,52.0,39.0,30.15,NNE,27,10.0,12.0,60,0.00,,,0.00,,2013-02-15 23:11:00,
2013-02-15 17:21:00,52.0,39.0,30.15,NNE,17,9.0,13.0,60,0.00,,,0.00,,2013-02-15 23:21:00,
2013-02-15 17:31:00,51.0,39.0,30.15,NNE,22,4.0,9.0,63,0.00,,,0.00,,2013-02-15 23:31:00,
2013-02-15 17:42:00,51.0,39.0,30.15,NNE,22,4.0,9.0,63,0.00,,,0.00,,2013-02-15 23:42:00,
2013-02-15 17:52:00,51.0,39.0,30.16,NNE,13,4.0,7.0,63,0.00,,,0.00,,2013-02-15 23:52:00,
2013-02-15 18:02:00,51.0,40.0,30.16,NNE,17,3.0,5.0,67,0.00,,,0.00,,2013-02-16 00:02:00,
2013-02-15 18:11:00,51.0,40.0,30.16,NNE,17,3.0,5.0,67,0.00,,,0.00,,2013-02-16 00:11:00,
2013-02-15 18:21:00,50.0,39.0,30.16,NNE,21,1.0,3.0,67,0.00,,,0.00,,2013-02-16 00:21:00,
2013-02-15 18:32:00,50.0,41.0,30.16,North,10,2.0,3.0,72,0.00,,,0.00,,2013-02-16 00:32:00,
2013-02-15 18:41:00,50.0,41.0,30.16,North,10,2.0,3.0,72,0.00,,,0.00,,2013-02-16 00:41:00,
2013-02-15 18:52:00,50.0,41.0,30.17,North,351,2.0,3.0,71,0.00,,,0.00,,2013-02-16 00:52:00,
2013-02-15 19:02:00,50.0,42.0,30.17,NNW,338,1.0,3.0,73,0.00,,,0.00,,2013-02-16 01:02:00,
2013-02-15 19:11:00,50.0,42.0,30.17,NNW,338,1.0,3.0,73,0.00,,,0.00,,2013-02-16 01:11:00,
2013-02-15 19:21:00,50.0,42.0,30.17,NNE,15,2.0,4.0,74,0.00,,,0.00,,2013-02-16 01:21:00,
2013-02-15 19:31:00,49.0,41.0,30.18,North,5,4.0,6.0,73,0.00,,,0.00,,2013-02-16 01:31:00,
2013-02-15 19:42:00,49.0,41.0,30.18,North,5,4.0,6.0,73,0.00,,,0.00,,2013-02-16 01:42:00,
2013-02-15 19:52:00,49.0,41.0,30.18,North,5,4.0,6.0,73,0.00,,,0.00,,2013-02-16 01:52:00,
2013-02-15 20:01:00,49.0,40.0,30.19,North,5,4.0,5.0,70,0.00,,,0.00,,2013-02-16 02:01:00,
2013-02-15 20:11:00,49.0,40.0,30.19,North,5,4.0,5.0,70,0.00,,,0.00,,2013-02-16 02:11:00,
2013-02-15 20:21:00,49.0,40.0,30.18,North,9,4.0,5.0,70,0.00,,,0.00,,2013-02-16 02:21:00,
2013-02-15 20:31:00,49.0,40.0,30.19,NNW,348,4.0,7.0,71,0.00,,,0.00,,2013-02-16 02:31:00,
2013-02-15 20:42:00,49.0,40.0,30.19,NNW,348,4.0,7.0,71,0.00,,,0.00,,2013-02-16 02:42:00,
2013-02-15 20:52:00,49.0,40.0,30.19,North,355,5.0,7.0,70,0.00,,,0.00,,2013-02-16 02:52:00,
2013-02-15 21:01:00,48.0,39.0,30.19,North,355,6.0,9.0,70,0.00,,,0.00,,2013-02-16 03:01:00,
2013-02-15 21:11:00,48.0,39.0,30.19,North,355,6.0,9.0,70,0.00,,,0.00,,2013-02-16 03:11:00,
2013-02-15 21:21:00,48.0,38.0,30.20,North,11,6.0,9.0,69,0.00,,,0.00,,2013-02-16 03:21:00,
2013-02-15 21:32:00,48.0,37.0,30.20,North,350,6.0,9.0,66,0.00,,,0.00,,2013-02-16 03:32:00,
2013-02-15 21:41:00,48.0,37.0,30.20,North,350,6.0,9.0,66,0.00,,,0.00,,2013-02-16 03:41:00,
2013-02-15 21:52:00,47.0,37.0,30.21,North,355,5.0,8.0,67,0.00,,,0.00,,2013-02-16 03:52:00,
2013-02-15 22:01:00,47.0,37.0,30.21,North,360,10.0,14.0,67,0.00,,,0.00,,2013-02-16 04:01:00,
2013-02-15 22:11:00,47.0,37.0,30.21,North,360,10.0,14.0,67,0.00,,,0.00,,2013-02-16 04:11:00,
2013-02-15 22:21:00,46.0,35.0,30.21,NNW,346,13.0,16.0,66,0.00,,,0.00,,2013-02-16 04:21:00,
2013-02-15 22:32:00,45.0,34.0,30.22,North,5,11.0,14.0,66,0.00,,,0.00,,2013-02-16 04:32:00,
2013-02-15 22:42:00,45.0,34.0,30.22,North,5,11.0,14.0,66,0.00,,,0.00,,2013-02-16 04:42:00,
2013-02-15 22:52:00,45.0,36.0,30.22,North,355,9.0,15.0,70,0.00,,,0.00,,2013-02-16 04:52:00,
2013-02-15 23:01:00,44.0,36.0,30.22,NNW,343,8.0,12.0,72,0.00,,,0.00,,2013-02-16 05:01:00,
2013-02-15 23:12:00,44.0,36.0,30.22,NNW,343,8.0,12.0,72,0.00,,,0.00,,2013-02-16 05:12:00,
2013-02-15 23:22:00,43.0,35.0,30.22,North,355,8.0,12.0,72,0.00,,,0.00,,2013-02-16 05:22:00,
2013-02-15 23:32:00,43.0,34.0,30.23,NNW,346,10.0,14.0,71,0.00,,,0.00,,2013-02-16 05:32:00,
2013-02-15 23:42:00,43.0,34.0,30.23,NNW,346,10.0,14.0,71,0.00,,,0.00,,2013-02-16 05:42:00,
2013-02-15 23:52:00,43.0,35.0,30.23,North,355,8.0,12.0,72,0.00,,,0.00,,2013-02-16 05:52:00,